sat.trackr.live / text

‹ back to catalog

STARLINK-30483

NORAD 57914 · 2023-147B

PAYLOAD ACTIVE UNKNOWN

§ Identity

Operator
Country
US
Launch date
2023-09-24
Launch site
AFETR
Launch vehicle
Mass (kg)
RCS (m²)

Purposes: comms

External: N2YO · Heavens-Above · Gunter

§ Orbital elements

Epoch: 2026-05-24T21:27:56.776032Z

Period
94.27 min
Inclination
43.0031°
Eccentricity
0.0001299
Mean motion
15.27575351 rev/d
Perigee alt
482.2 km
Apogee alt
484.0 km
Semi-major
6,861.2 km
B*
3.8433e-5
RAAN
109.2641°
Arg perigee
291.8099°
Mean anomaly
68.2614°
Rev number
14,996

§ Raw data

STARLINK-304831 57914U 23147B   26144.89440713  .00000795  00000+0  38433-4 0  99912 57914  43.0031 109.2641 0001299 291.8099  68.2614 15.27575351149968

JSON: /api/v1/satellites/57914 · /tle

For live sub-satellite position, see the globe view (requires WebGL).

§ Visibility from observer

Set your observer location to see the next 7 days of passes ≥ 10°. The values pass through the URL so the page stays shareable.

No JS? Fill the form by hand. The geolocation button needs JavaScript.